Location: Caltech
(34.1382°N, 118.1253°W)
Time: 00:39:10
(UTC-07:00)

Transit 2A - Visible Passes

Search period start: 07 May 2015 00:00
Search period end: 17 May 2015 00:00
Orbit: 592 x 968 km, 66.7° (Epoch: 05 May)

Date Brightness Start Highest point End Pass type
(mag) Time Alt. Az. Time Alt. Az. Time Alt. Az.
07 May 7.0 03:57:17 25° S 04:00:42 53° ESE 04:06:55 10° NE visible
08 May 7.5 03:24:48 28° SSE 03:27:01 36° ESE 03:32:49 10° NE visible
08 May 7.3 05:05:20 13° WSW 05:10:21 35° NW 05:16:08 10° N visible
09 May 8.0 02:52:14 23° ESE 02:53:22 25° ESE 02:58:29 10° NE visible
09 May 6.8 04:32:46 24° WSW 04:36:23 49° WNW 04:42:35 10° NNE visible
10 May 8.4 02:19:36 17° ESE 02:19:44 17° ESE 02:23:44 10° ENE visible
10 May 6.5 04:00:08 40° SW 04:02:30 70° WNW 04:08:55 10° NNE visible
11 May 8.9 01:46:55 10° E 01:46:55 10° E 01:47:31 10° E visible
11 May 6.4 03:27:27 60° SSW 03:28:41 84° ESE 03:35:08 10° NNE visible
11 May 8.2 05:08:42 10° W 05:12:53 17° NW 05:16:49 10° N visible
12 May 6.7 02:54:42 58° ESE 02:54:56 59° ESE 03:01:14 10° NE visible
12 May 7.9 04:35:13 16° W 04:38:44 24° NW 04:43:39 10° N visible
13 May 7.4 02:21:54 39° E 02:21:54 39° E 02:27:11 10° NE visible
13 May 7.5 04:02:25 26° W 04:04:40 32° NW 04:10:17 10° N visible
14 May 8.0 01:49:04 26° E 01:49:04 26° E 01:52:55 10° NE visible
14 May 6.9 03:29:34 41° W 03:30:40 44° WNW 03:36:45 10° NNE visible
15 May 8.5 01:16:10 16° E 01:16:10 16° E 01:18:20 10° ENE visible
15 May 6.5 02:56:41 63° WNW 02:56:46 63° WNW 03:03:07 10° NNE visible
15 May 8.6 04:39:25 10° WNW 04:41:28 11° NW 04:43:08 10° NNW visible
16 May 6.6 02:23:44 70° NNE 02:23:44 70° NNE 02:29:22 10° NNE visible
16 May 8.4 04:04:14 12° WNW 04:07:13 16° NW 04:10:46 10° N visible
